ROMMA est une association bénévole à but non lucratif. Votre soutien est indispensable : ADHERER à ROMMA ou FAIRE un DON

Voiron - (38, Isère)

Voironnais (300 m)   Longitude: 05° 35' E   Latitude: 45° 23' N Station partenaire n°109
 

Détail journalier du     <<     >>

Température Precipitation Humidité Pression Vent Dir Rafale Dir. rafale Ensol.
Heure (°C) (mm) (%) (hPa) (km/h) (km/h) (min)
01:00 7.605110282ENE16NE0
02:00 7.405310286NE18ENE0
03:00 5.506010282NO15NNO0
04:00 4.806310282NO6NO0
05:00 4.406410284NO11NO0
06:00 4.006610282NNO5NNO0
07:00 3.806810292NNO6NO0
08:00 7.305610284ENE15E30
09:00 7.805410286ENE21E60
10:00 9.904910286ENE19E60
11:00 10.3044102814NE35NE60
12:00 11.6042102810ENE29ENE60
13:00 12.3041102813N42N60
14:00 13.9037102715NNO37NNO60
15:00 14.4038102715N35N60
16:00 14.9037102711N29NNO60
17:00 15.703610277NO26NNO60
18:00 14.9036102711N32N30
19:00 14.003910279N21N30
20:00 13.2042102813N29NNO0
21:00 12.3045102914N27NNE0
22:00 11.804610299N26NNE0
23:00 10.9050102910NNE21NE0
minuit 10.205310296NE15E0

Graphique du 27-03-2019

 

Serveur OMMA